Location: Les Jeannots
(43.2262°N, 5.5774°E)
Time: 17:44:24
(UTC+00:00)

Cosmos 2237 - Pass Details

Date: 05 July 2020
Orbit: 845 x 857 km, 70.8° (Epoch: 12 August)

Event Time Altitude Azimuth Distance (km) Brightness Sun altitude
Rises 19:54:56 0° 190° (S) 3,405 7.1 -5.9°
Reaches altitude 10° 19:57:24 10° 187° (S) 2,475 6.3 -6.3°
Maximum altitude 20:02:58 57° 110° (ESE) 999 4.3 -7.1°
Drops below altitude 10° 20:08:34 10° 33° (NNE) 2,497 6.8 -7.8°
Sets 20:11:04 0° 29° (NNE) 3,438 7.5 -8.2°
